Location: Ferchesar
(52.6477°N, 12.4298°E)
Time: 08:33:31
(UTC+01:00)

Vanguard 2 Rocket - Visible Passes

Search period start: 30 November 2022 00:00
Search period end: 10 December 2022 00:00
Orbit: 555 x 3321 km, 32.9° (Epoch: 29 November)

Date Brightness Start Highest point End Pass type
(mag) Time Alt. Az. Time Alt. Az. Time Alt. Az.
04 Dec 9.3 05:52:58 10° SSW 05:53:58 10° S 05:54:53 10° S visible
05 Dec 9.4 04:51:23 10° SSW 04:54:13 12° S 04:56:38 10° SSE visible
06 Dec 9.6 03:54:25 13° S 03:54:25 13° S 03:57:30 10° SSE visible
06 Dec 9.2 06:03:58 10° SSW 06:06:23 12° SSW 06:08:30 10° S visible
07 Dec 9.9 02:57:46 10° SE 02:57:46 10° SE 02:57:48 10° SE visible
07 Dec 9.3 05:03:32 12° SSW 05:06:40 15° S 05:10:11 10° SSE visible
08 Dec 9.4 04:06:49 17° S 04:06:49 17° S 04:11:17 10° SE visible
08 Dec 9.3 06:16:02 10° SW 06:18:43 12° SSW 06:21:01 10° S visible
09 Dec 9.7 03:10:04 15° SSE 03:10:04 15° SSE 03:11:59 10° SE visible
09 Dec 9.2 05:15:49 13° SW 05:19:02 16° SSW 05:23:02 10° SSE visible
